Weather History for Manning, SC

Change the Weather History Date:

Tuesday, December 27, 2011

  Actual Average (KCKI) Record (KCKI)
Temperature  
Mean Temperature 58 °F -  
Max Temperature 69 °F 53 °F 68 °F (2014)
Min Temperature 46 °F 31 °F 28 °F (2010)
Degree Days  
Heating Degree Days 8    
Growing Degree Days 8 (Base 50)    
Moisture  
Dew Point 46 °F    
Average Humidity 67    
Maximum Humidity 100    
Minimum Humidity 20    
Precipitation  
Precipitation 0.59 in - - ()
Sea Level Pressure  
Sea Level Pressure 29.87 in    
Wind  
Wind Speed 7 mph (SSW)    
Max Wind Speed 18 mph    
Max Gust Speed 32 mph    
Visibility 9 miles    
Events      
Averages and records for this station are not official NWS values.
T = Trace of Precipitation, MM = Missing Value Source: NWS Daily Summary

Daily Weather History Graph

Daily Weather History Graph

Search for Another Location

Airport:

Trip Planner

Search our weather history database for the weather conditions in past years. The results will help you decide how hot, cold, wet, or windy it might be!

Date:

Astronomy

Dec. 27, 2011 Rise Set
Actual Time 7:23 AM EST 5:19 PM EST
Civil Twilight 6:56 AM EST 5:47 PM EST
Nautical Twilight 6:25 AM EST 6:18 PM EST
Astronomical Twilight 5:54 AM EST 6:49 PM EST
Moon 9:26 AM EST (12/27) 8:42 PM EST (12/27)
Length of Visible Light 10h 51m
Length of Day
9h 56m
Waxing Crescent, 11% of the Moon is Illuminated
Dec 27
Waxing Crescent
Jan 1
First Quarter
Jan 9
Full
Jan 16
Last Quarter
Jan 23
New

Hourly Weather History & Observations

Time (EST) Temp. Windchill Dew Point Humidity Pressure Visibility Wind Dir Wind Speed Gust Speed Precip Events Conditions
12:35 AM 46.4 °F 45.2 °F 37.4 °F 71% 30.19 in 10.0 mi NE 3.5 mph - N/A   Clear
12:55 AM 46.4 °F 45.2 °F 37.4 °F 71% 30.18 in 10.0 mi ENE 3.5 mph - N/A   Clear
1:15 AM 46.4 °F 44.3 °F 37.4 °F 71% 30.15 in 10.0 mi ENE 4.6 mph - N/A   Mostly Cloudy
1:35 AM 48.2 °F - 37.4 °F 66% 30.13 in 10.0 mi ENE 6.9 mph - N/A   Scattered Clouds
1:55 AM 50.0 °F - 37.4 °F 62% 30.12 in 10.0 mi East 5.8 mph - N/A   Clear
2:15 AM 50.0 °F - 39.2 °F 66% 30.12 in 10.0 mi ENE 3.5 mph - N/A   Scattered Clouds
2:35 AM 50.0 °F - 39.2 °F 66% 30.10 in 10.0 mi East 8.1 mph - N/A   Mostly Cloudy
2:55 AM 50.0 °F - 39.2 °F 66% 30.10 in 10.0 mi East 5.8 mph - N/A   Overcast
3:15 AM 50.0 °F - 41.0 °F 71% 30.09 in 10.0 mi East 3.5 mph - N/A   Overcast
3:35 AM 50.0 °F - 41.0 °F 71% 30.08 in 10.0 mi ENE 4.6 mph - N/A   Overcast
3:55 AM 50.0 °F - 41.0 °F 71% 30.08 in 10.0 mi Calm Calm - N/A   Overcast
4:15 AM 50.0 °F - 41.0 °F 71% 30.06 in 10.0 mi Calm Calm - N/A   Overcast
4:35 AM 50.0 °F - 41.0 °F 71% 30.04 in 10.0 mi ENE 4.6 mph - N/A   Overcast
4:55 AM 50.0 °F - 42.8 °F 76% 30.04 in 10.0 mi Calm Calm - N/A   Overcast
5:15 AM 50.0 °F - 42.8 °F 76% 30.02 in 10.0 mi Calm Calm - N/A   Overcast
5:35 AM 50.0 °F - 42.8 °F 76% 30.01 in 10.0 mi ENE 4.6 mph - N/A   Overcast
5:55 AM 50.0 °F - 42.8 °F 76% 29.99 in 10.0 mi ENE 5.8 mph - N/A   Overcast
6:15 AM 50.0 °F - 44.6 °F 82% 29.96 in 10.0 mi East 5.8 mph - N/A   Overcast
6:35 AM 51.8 °F - 44.6 °F 76% 29.96 in 10.0 mi East 5.8 mph - N/A   Mostly Cloudy
6:55 AM 53.6 °F - 46.4 °F 77% 29.93 in 10.0 mi ESE 3.5 mph - N/A   Overcast
7:15 AM 53.6 °F - 48.2 °F 82% 29.92 in 10.0 mi SE 5.8 mph - N/A   Overcast
7:35 AM 55.4 °F - 50.0 °F 82% 29.91 in 10.0 mi SE 4.6 mph - N/A   Overcast
7:55 AM 57.2 °F - 51.8 °F 82% 29.91 in 7.0 mi SE 6.9 mph - 0.02 in   Overcast
8:15 AM 55.4 °F - 53.6 °F 94% 29.90 in 5.0 mi SSE 3.5 mph - 0.04 in   Overcast
8:35 AM 55.4 °F - 55.4 °F 100% 29.89 in 4.0 mi SSE 4.6 mph - 0.08 in   Overcast
8:55 AM 57.2 °F - 55.4 °F 94% 29.87 in 4.0 mi SSE 4.6 mph - 0.10 in   Overcast
9:15 AM 59.0 °F - 59.0 °F 100% 29.86 in 5.0 mi SSE 4.6 mph - 0.02 in   Overcast
9:55 AM 62.6 °F - 62.6 °F 100% 29.84 in 3.0 mi South 9.2 mph - 0.19 in   Overcast
10:15 AM 62.6 °F - 62.6 °F 100% 29.81 in 3.0 mi SSE 10.4 mph 16.1 mph 0.05 in   Overcast
10:35 AM 64.4 °F - 64.4 °F 100% 29.77 in 7.0 mi SSE 11.5 mph 17.3 mph 0.07 in   Overcast
10:55 AM 64.4 °F - 64.4 °F 100% 29.74 in 10.0 mi South 11.5 mph 20.7 mph 0.07 in   Overcast
11:15 AM 66.2 °F - 64.4 °F 94% 29.73 in 5.0 mi South 17.3 mph 28.8 mph N/A   Overcast
11:35 AM 68.0 °F - 64.4 °F 88% 29.75 in 1.2 mi SW 16.1 mph 28.8 mph 0.18 in   Overcast
11:55 AM 66.2 °F - 62.6 °F 88% 29.74 in 7.0 mi SW 15.0 mph 24.2 mph 0.20 in   Overcast
12:15 PM 66.2 °F - 55.4 °F 68% 29.73 in 10.0 mi SW 13.8 mph 23.0 mph 0.01 in   Overcast
12:35 PM 66.2 °F - 60.8 °F 83% 29.74 in 10.0 mi WSW 15.0 mph 25.3 mph 0.01 in   Overcast
1:15 PM 64.4 °F - 51.8 °F 64% 29.70 in 10.0 mi SW 12.7 mph 23.0 mph N/A   Scattered Clouds
1:35 PM 66.2 °F - 53.6 °F 64% 29.70 in 7.0 mi SW 16.1 mph 25.3 mph N/A   Clear
1:55 PM 68.0 °F - 50.0 °F 52% 29.70 in 10.0 mi SW 17.3 mph 24.2 mph N/A   Clear
2:15 PM 68.0 °F - 48.2 °F 49% 29.69 in 10.0 mi SW 18.4 mph 24.2 mph N/A   Clear
2:35 PM 68.0 °F - 50.0 °F 52% 29.68 in 10.0 mi SW 16.1 mph 28.8 mph N/A   Clear
2:55 PM 68.0 °F - 41.0 °F 37% 29.68 in 10.0 mi SW 12.7 mph 25.3 mph N/A   Clear
3:15 PM 68.0 °F - 37.4 °F 33% 29.68 in 10.0 mi SW 10.4 mph 20.7 mph N/A   Clear
3:35 PM 69.8 °F - 41.0 °F 35% 29.68 in 10.0 mi WSW 10.4 mph 17.3 mph N/A   Clear
4:15 PM 68.0 °F - 44.6 °F 43% 29.70 in 10.0 mi WSW 13.8 mph 23.0 mph N/A   Clear
4:35 PM 68.0 °F - 44.6 °F 43% 29.70 in 10.0 mi WSW 12.7 mph 20.7 mph N/A   Clear
4:55 PM 66.2 °F - 44.6 °F 46% 29.72 in 10.0 mi WSW 15.0 mph 27.6 mph N/A   Scattered Clouds
5:15 PM 64.4 °F - 44.6 °F 49% 29.72 in 10.0 mi WSW 10.4 mph 20.7 mph N/A   Scattered Clouds
5:35 PM 62.6 °F - 44.6 °F 52% 29.73 in 10.0 mi WSW 8.1 mph 19.6 mph N/A   Scattered Clouds
5:55 PM 62.6 °F - 44.6 °F 52% 29.74 in 10.0 mi WSW 11.5 mph 20.7 mph N/A   Mostly Cloudy
6:15 PM 62.6 °F - 44.6 °F 52% 29.75 in 10.0 mi WSW 15.0 mph 19.6 mph N/A   Overcast
6:55 PM 60.8 °F - 44.6 °F 55% 29.77 in 10.0 mi West 15.0 mph 23.0 mph N/A   Overcast
7:15 PM 59.0 °F - 42.8 °F 55% 29.79 in 10.0 mi West 11.5 mph 25.3 mph N/A   Overcast
7:35 PM 57.2 °F - 41.0 °F 55% 29.80 in 10.0 mi West 15.0 mph 21.9 mph N/A   Overcast
7:55 PM 55.4 °F - 41.0 °F 58% 29.80 in 10.0 mi West 12.7 mph 23.0 mph N/A   Overcast
8:35 PM 55.4 °F - 41.0 °F 58% 29.81 in 10.0 mi West 12.7 mph 19.6 mph N/A   Overcast
8:55 PM 55.4 °F - 41.0 °F 58% 29.82 in 10.0 mi WSW 11.5 mph 23.0 mph N/A   Overcast
9:15 PM 53.6 °F - 39.2 °F 58% 29.82 in 10.0 mi West 11.5 mph 21.9 mph N/A   Overcast
9:35 PM 53.6 °F - 39.2 °F 58% 29.83 in 10.0 mi West 8.1 mph 19.6 mph N/A   Overcast
9:55 PM 53.6 °F - 41.0 °F 62% 29.83 in 10.0 mi West 6.9 mph - N/A   Overcast
10:15 PM 53.6 °F - 41.0 °F 62% 29.84 in 10.0 mi West 12.7 mph 20.7 mph N/A   Mostly Cloudy
10:35 PM 53.6 °F - 41.0 °F 62% 29.84 in 10.0 mi WSW 13.8 mph 24.2 mph N/A   Overcast
10:55 PM 51.8 °F - 37.4 °F 58% 29.85 in 10.0 mi West 10.4 mph 32.2 mph N/A   Mostly Cloudy
11:15 PM 51.8 °F - 37.4 °F 58% 29.86 in 10.0 mi West 11.5 mph 23.0 mph N/A   Scattered Clouds
11:35 PM 50.0 °F - 10.4 °F 20% 29.87 in 10.0 mi West 10.4 mph 24.2 mph N/A   Clear
11:55 PM 50.0 °F - 35.6 °F 58% 29.87 in 10.0 mi West 9.2 mph 19.6 mph N/A   Clear